Location: Albany
(35.0000°S, 118.0000°E)
Time: 15:38:11
(UTC-04:00)

Transit 2A - Visible Passes

Search period start: 25 June 2016 00:00
Search period end: 05 July 2016 00:00
Orbit: 592 x 968 km, 66.7° (Epoch: 25 June)

Date Brightness Start Highest point End Pass type
(mag) Time Alt. Az. Time Alt. Az. Time Alt. Az.
02 Jul 7.5 06:15:23 10° SSE 06:16:14 12° SSE 06:16:14 12° SSE visible
03 Jul 7.0 07:22:53 10° SSW 07:25:06 30° SSW 07:25:06 30° SSW visible
04 Jul 5.5 06:48:59 10° SSW 06:53:21 61° ESE 06:54:12 50° ENE visible
